Mattaponi, VA

3:29 PM EST on December 06, 2016 (GMT -0500)
West Point

Weather History for KFYJ - March, 2014

Change the Weather History Date:

Thursday, March 6, 2014

  Actual Average (KJGG) Record (KJGG)
Temperature  
Mean Temperature 35 °F -  
Max Temperature 39 °F 58 °F 83 °F (1961)
Min Temperature 31 °F 35 °F 16 °F (1960)
Degree Days  
Heating Degree Days 30    
Moisture  
Dew Point 21 °F    
Average Humidity 56    
Maximum Humidity 70    
Minimum Humidity 43    
Precipitation  
Precipitation 0.00 in - - ()
Sea Level Pressure  
Sea Level Pressure 30.42 in    
Wind  
Wind Speed 7 mph (NNE)    
Max Wind Speed 14 mph    
Max Gust Speed 23 mph    
Visibility 10 miles    
Events      
Averages and records for this station are not official NWS values.
T = Trace of Precipitation, MM = Missing Value Source: NWS Daily Summary

Daily Weather History Graph

Daily Weather History Graph

Search for Another Location

Airport or City:

Trip Planner

Search our weather history database for the weather conditions in past years. The results will help you decide how hot, cold, wet, or windy it might be!

Date:

Astronomy

Mar. 06, 2014 Rise Set
Actual Time 6:31 AM EST 6:05 PM EST
Civil Twilight 6:05 AM EST 6:31 PM EST
Nautical Twilight 5:34 AM EST 7:02 PM EST
Astronomical Twilight 5:04 AM EST 7:32 PM EST
Moon 9:44 AM EST No Moon Set
Length of Visible Light 12h 26m
Length of Day
11h 34m
Waxing Crescent, 32% of the Moon is Illuminated
Mar 6
Waxing Crescent
Mar 8
First Quarter
Mar 16
Full
Mar 23
Last Quarter
Mar 30
New

Hourly Weather History & Observations

Time (EST) Temp. Windchill Dew Point Humidity Pressure Visibility Wind Dir Wind Speed Gust Speed Precip Events Conditions
12:15 AM 34.3 °F 30.2 °F 14.0 °F 43% 30.36 in 10.0 mi North 4.6 mph - N/A   Overcast
12:35 AM 34.3 °F 30.2 °F 14.9 °F 45% 30.36 in 10.0 mi North 4.6 mph - N/A   Overcast
12:55 AM 34.3 °F 29.2 °F 16.2 °F 47% 30.37 in 10.0 mi NNE 5.8 mph - N/A   Overcast
1:15 AM 34.7 °F 29.6 °F 17.6 °F 50% 30.38 in 10.0 mi NNE 5.8 mph - N/A   Overcast
1:35 AM 34.3 °F 29.2 °F 18.5 °F 52% 30.39 in 10.0 mi NNE 5.8 mph - N/A   Overcast
1:55 AM 34.0 °F - 19.2 °F 55% 30.40 in 10.0 mi Calm Calm - N/A   Overcast
2:15 AM 33.8 °F 29.6 °F 19.4 °F 56% 30.41 in 10.0 mi NE 4.6 mph - N/A   Overcast
2:35 AM 33.8 °F 29.6 °F 19.4 °F 56% 30.41 in 10.0 mi NE 4.6 mph - N/A   Overcast
2:55 AM 33.4 °F 29.1 °F 19.0 °F 56% 30.40 in 10.0 mi NNE 4.6 mph - N/A   Overcast
3:15 AM 33.3 °F 27.1 °F 18.1 °F 54% 30.39 in 10.0 mi NNE 6.9 mph - N/A   Overcast
3:35 AM 33.8 °F 27.7 °F 17.1 °F 50% 30.39 in 10.0 mi NNE 6.9 mph - N/A   Overcast
3:55 AM 33.8 °F 28.6 °F 16.7 °F 50% 30.39 in 10.0 mi NNE 5.8 mph - N/A   Overcast
4:15 AM 33.4 °F 27.3 °F 15.8 °F 48% 30.40 in 10.0 mi NNE 6.9 mph 16.1 mph N/A   Overcast
4:35 AM 33.1 °F 25.5 °F 16.5 °F 51% 30.39 in 10.0 mi NNE 9.2 mph - N/A   Overcast
4:55 AM 32.9 °F 27.5 °F 16.3 °F 51% 30.41 in 10.0 mi NNE 5.8 mph - N/A   Overcast
5:15 AM 32.5 °F 24.8 °F 16.7 °F 52% 30.42 in 10.0 mi NE 9.2 mph - N/A   Overcast
5:35 AM 32.4 °F 24.6 °F 16.5 °F 52% 30.44 in 10.0 mi NNE 9.2 mph - N/A   Overcast
5:55 AM 32.2 °F 25.8 °F 16.7 °F 53% 30.45 in 10.0 mi NNE 6.9 mph - N/A   Overcast
6:15 AM 32.0 °F 25.6 °F 17.1 °F 54% 30.46 in 10.0 mi NNE 6.9 mph - N/A   Overcast
6:35 AM 32.0 °F 26.4 °F 17.2 °F 55% 30.47 in 10.0 mi NNE 5.8 mph - N/A   Overcast
6:55 AM 31.8 °F 27.3 °F 17.6 °F 56% 30.48 in 10.0 mi NE 4.6 mph - N/A   Mostly Cloudy
7:15 AM 32.0 °F 24.8 °F 17.6 °F 55% 30.48 in 10.0 mi North 8.1 mph - N/A   Mostly Cloudy
7:35 AM 32.0 °F 23.6 °F 17.8 °F 56% 30.48 in 10.0 mi North 10.4 mph - N/A   Mostly Cloudy
7:55 AM 32.7 °F 26.4 °F 18.1 °F 55% 30.50 in 10.0 mi North 6.9 mph - N/A   Mostly Cloudy
8:15 AM 33.6 °F 26.8 °F 18.0 °F 53% 30.51 in 10.0 mi NNE 8.1 mph - N/A   Scattered Clouds
8:35 AM 34.3 °F 27.7 °F 18.1 °F 52% 30.51 in 10.0 mi NNE 8.1 mph 19.6 mph N/A   Scattered Clouds
8:55 AM 34.9 °F 26.6 °F 18.5 °F 51% 30.51 in 10.0 mi NNE 11.5 mph 17.3 mph N/A   Scattered Clouds
9:15 AM 35.6 °F 27.1 °F 19.2 °F 51% 30.52 in 10.0 mi North 12.7 mph 18.4 mph N/A   Scattered Clouds
9:35 AM 36.3 °F 28.0 °F 20.1 °F 52% 30.51 in 10.0 mi NNE 12.7 mph 19.6 mph N/A   Scattered Clouds
9:55 AM 37.6 °F 30.0 °F 20.7 °F 51% 30.51 in 10.0 mi NE 11.5 mph 21.9 mph N/A   Scattered Clouds
10:15 AM 37.8 °F 31.3 °F 20.8 °F 51% 30.50 in 10.0 mi NNE 9.2 mph 18.4 mph N/A   Scattered Clouds
10:35 AM 37.6 °F 29.1 °F 21.4 °F 52% 30.50 in 10.0 mi NNE 13.8 mph 19.6 mph N/A   Clear
10:55 AM 38.1 °F 31.7 °F 21.6 °F 51% 30.50 in 10.0 mi NE 9.2 mph 18.4 mph N/A   Clear
11:15 AM 39.4 °F 31.8 °F 21.9 °F 50% 30.49 in 10.0 mi NNE 12.7 mph 23.0 mph N/A   Clear
11:35 AM 38.3 °F 30.5 °F 22.5 °F 53% 30.49 in 10.0 mi NE 12.7 mph 21.9 mph N/A   Scattered Clouds
11:55 AM 39.2 °F 33.0 °F 23.0 °F 52% 30.48 in 10.0 mi NNE 9.2 mph 18.4 mph N/A   Mostly Cloudy
12:15 PM 38.3 °F 31.4 °F 23.4 °F 55% 30.47 in 10.0 mi NE 10.4 mph 18.4 mph N/A   Overcast
12:35 PM 38.5 °F 31.6 °F 23.5 °F 55% 30.47 in 10.0 mi NE 10.4 mph 19.6 mph N/A   Overcast
12:55 PM 38.3 °F 31.4 °F 23.5 °F 55% 30.46 in 10.0 mi NNE 10.4 mph 16.1 mph N/A   Overcast
1:15 PM 38.3 °F 31.4 °F 23.5 °F 55% 30.44 in 10.0 mi NNE 10.4 mph 19.6 mph N/A   Mostly Cloudy
1:35 PM 38.5 °F 31.6 °F 23.7 °F 55% 30.44 in 10.0 mi NNE 10.4 mph - N/A   Overcast
1:55 PM 37.8 °F 31.8 °F 23.7 °F 57% 30.45 in 10.0 mi NE 8.1 mph 16.1 mph N/A   Overcast
2:15 PM 38.3 °F 33.2 °F 23.7 °F 56% 30.44 in 10.0 mi NNE 6.9 mph 16.1 mph N/A   Overcast
2:35 PM 38.3 °F 31.9 °F 23.9 °F 56% 30.44 in 10.0 mi NE 9.2 mph - N/A   Overcast
2:55 PM 38.7 °F 34.3 °F 23.9 °F 55% 30.44 in 10.0 mi NE 5.8 mph - N/A   Overcast
3:15 PM 39.4 °F 33.2 °F 23.7 °F 54% 30.43 in 10.0 mi ENE 9.2 mph 16.1 mph N/A   Overcast
3:35 PM 39.4 °F 33.8 °F 23.4 °F 53% 30.43 in 10.0 mi NE 8.1 mph 16.1 mph N/A   Overcast
3:55 PM 39.6 °F 33.0 °F 22.8 °F 51% 30.41 in 10.0 mi NE 10.4 mph 20.7 mph N/A   Overcast
4:15 PM 38.8 °F 31.2 °F 22.8 °F 53% 30.40 in 10.0 mi NE 12.7 mph - N/A   Overcast
4:35 PM 38.7 °F 30.9 °F 23.4 °F 54% 30.40 in 10.0 mi NE 12.7 mph 16.1 mph N/A   Overcast
4:55 PM 38.3 °F 31.4 °F 23.5 °F 55% 30.40 in 10.0 mi NE 10.4 mph - N/A   Overcast
5:15 PM 37.8 °F 31.3 °F 23.2 °F 56% 30.41 in 10.0 mi NNE 9.2 mph 18.4 mph N/A   Overcast
5:35 PM 37.6 °F 32.3 °F 23.0 °F 56% 30.41 in 10.0 mi NNE 6.9 mph - N/A   Overcast
5:55 PM 37.4 °F 31.4 °F 23.0 °F 56% 30.42 in 10.0 mi NNE 8.1 mph - N/A   Overcast
6:15 PM 37.4 °F 32.8 °F 23.0 °F 56% 30.42 in 10.0 mi NE 5.8 mph - N/A   Overcast
6:35 PM 37.4 °F 33.8 °F 21.6 °F 53% 30.42 in 10.0 mi NNE 4.6 mph - N/A   Overcast
6:55 PM 37.4 °F 31.4 °F 21.7 °F 53% 30.41 in 10.0 mi NE 8.1 mph - N/A   Overcast
7:15 PM 36.9 °F 28.7 °F 22.5 °F 56% 30.41 in 10.0 mi ENE 12.7 mph 17.3 mph N/A   Overcast
7:40 PM 36.5 °F 29.2 °F 23.2 °F 59% 30.40 in 10.0 mi NNE 10.4 mph 16.1 mph N/A   Overcast
7:55 PM 36.0 °F 28.0 °F 23.7 °F 61% 30.39 in 10.0 mi NE 11.5 mph 17.3 mph N/A   Overcast
8:15 PM 35.6 °F 28.0 °F 24.1 °F 63% 30.39 in 10.0 mi NNE 10.4 mph 17.3 mph N/A   Overcast
8:35 PM 35.2 °F 28.1 °F 24.6 °F 65% 30.38 in 10.0 mi NE 9.2 mph - N/A   Overcast
8:55 PM 35.2 °F 28.8 °F 25.0 °F 66% 30.37 in 10.0 mi NNE 8.1 mph - N/A   Overcast
9:15 PM 35.2 °F 27.6 °F 25.3 °F 67% 30.37 in 10.0 mi NNE 10.4 mph 19.6 mph N/A   Overcast
9:35 PM 35.1 °F 27.9 °F 25.7 °F 69% 30.38 in 10.0 mi NE 9.2 mph 16.1 mph N/A   Overcast
9:55 PM 35.2 °F 28.8 °F 25.9 °F 69% 30.37 in 10.0 mi NNE 8.1 mph - N/A   Overcast
10:15 PM 35.2 °F 29.5 °F 26.2 °F 70% 30.37 in 10.0 mi NNE 6.9 mph - N/A   Overcast
10:35 PM 35.2 °F 28.8 °F 26.2 °F 70% 30.36 in 10.0 mi NE 8.1 mph 17.3 mph N/A   Overcast
10:55 PM 35.6 °F 29.2 °F 26.4 °F 69% 30.34 in 10.0 mi North 8.1 mph - N/A   Overcast
11:15 PM 35.6 °F 28.0 °F 26.6 °F 70% 30.33 in 10.0 mi NNE 10.4 mph - N/A   Overcast
11:35 PM 35.6 °F 30.7 °F 26.6 °F 70% 30.33 in 10.0 mi NNE 5.8 mph - N/A   Overcast
11:55 PM 35.8 °F 27.8 °F 26.6 °F 69% 30.30 in 10.0 mi NNE 11.5 mph 19.6 mph N/A   Overcast